STARLINK-34320, 64217

Orbit data source: Space-Track

STARLINK-34320, 64217 is a payload satellite owned by SpaceX/Seattle (US) in LEO that was launched on Sat, 31 May 2025 UTC via an FALCON 9 launch vehicle from the Air Force Western Test Range (AFWTR). Payload-class satellites include a variety of spacecraft equipped with specific instruments for various scientific and technological missions. These include communications satellites like Starlink; space stations such as the ISS; scientific satellites like the Hubble; Earth observation satellites from companies like Planet Labs, Umbra, and HawkEye 360; GPS; miniature CubeSats for education and research; and military/defense satellites.

Loading next visibility...
Identifier
64217, 2025-117Q
Orbit
LEO
Country
Flag of USUS
Related business
Manufacturer
SpaceX/Seattle
Mission
Operational Commercial Communications
Bus & Motor
STARLINK V2MO, Unknown motor
Mass
575 kg wet, ~530 kg dry
Launch date (UTC)
2025-05-31 (1 year ago)
Launch vehicle
FALCON 9
Launch site
Air Force Western Test Range (AFWTR)
Object type
Payload
Rocket body
Debris
Shape & HBR
Box + 2 Pan, 17.7 m
Radar Cross Section
36.964 m², Large (>1 m²)

Expand to show TLE details & history
Last TLE update: 1 day ago

TLE from 1 day ago
0 STARLINK-34320
1 64217U 25117Q   26197.29531684  .00007494  00000-0  23263-3 0  9992
2 64217  53.1594 160.9817 0001043  98.4625 261.6495 15.34411271 64230
Epoch: 2026-07-16T07:05Z
TLE epoch observation values (Epoch: 2026-07-16T07:05:15.374Z)
Latitude
-0.00011°
Longitude
120.52874°
Altitude
463.675 km
Speed
7.636 km/s
True Right ascension
10h 43m 55s
True Declination
0° 00' 00"
Sunlit
Object was in daylight at epoch
Visualization orbit readout
Latitude
Unknown
Longitude
Unknown
Altitude
Unknown
Speed
Unknown
Apparent Right ascension
Unknown
Apparent Declination
Unknown
Sunlit
N/A
Visualization observer readout
Local Sidereal Time
21:03:33
Azimuth
Unknown
Elevation
Unknown
Doppler factor
Unknown
Orbital elements
Apogee altitude
463.64 km
Perigee altitude
462.213 km
Semi-major axis
6,841.064 km
Eccentricity
0.0001
Inclination
53.1594°
RAAN
160.9817°
Arg. of periapsis
98.4625°
True anomaly
261.63768°
Mean anomaly
261.6495°
Eccentric anomaly
261.64359°
Mean motion
3.83582 °/min
Orbital period
93.85 mins
BSTAR
0.00023263
Loading maneuver chart data...
Computing Atmospheric mass density...
Loading historical data...
Loading historical data...
Loading historical data...
Loading historical data...
Loading historical data...
Loading historical data...
Loading historical data...

Documentation

Showing up to 5 results
|